Погода Pisa

Погода Pisa : погода сейчас, прогноз погоды и архив. Всё, что Вы хотите узнать о погоде Pisa!

Поиск расширенной информации на нашем сайте:

Другие новости

Новости СМИ2

Главная страница сайта

Новости сайта

03.07.2017

Напоминаем, что на нашем специализированном сайте Метеоцентр.Азия вы можете получить высокодетализированные автоматические прогнозы погоды по пунктам России, СНГ и мира в авиационном формате (включающие направление и скорость ветра, видимость, явления погоды, количество и форму облачности, нижнюю и верхнюю границу облачности).


Погода Pisa - сегодня

Время (UTC), дата Ветер
(°,м/с) 
Видим.   Явления Облачность Т
(°С)
Тd
(°С)
f(%) Тe
(°С)
Pmin
(гПа)
dP
(гПа)
Po
(мм)
O2
(г/м3)
Тmin Tmax R s Состояние
почвы
18 15.10.17 290 (З) 12000 м    ясно 
+17 +16 94 +28  1028.7  0.1  771  289    +22       
21 15.10.17 140 (ЮВ) 0200 м  туман  6/6 30 м 
[St]
+11.4 +10.6 95 +14  1028.6  0.1  771  296           
00 16.10.17 100 (В) 0200 м  туман  6/6 30 м 
[St]
+12.6 +12.3 98 +18  1028.5  0.1  771  295           
03 16.10.17 170 (Ю) 0200 м  туман  6/6 30 м 
[St]
+12 +11.7 98 +15  1028.3  -0.2  771  295           
06 16.10.17 110 (В) 0100 м  туман  6/6 30 м 
[St]
+10 +9.7 98 +10  1028.4  0.1  771  298          влажная 
09 16.10.17 120 (ЮВ) 15000 м  {туман}  ясно 
+14 +13.4 96 +19  1029.4  772  293           
12 16.10.17 300 (СЗ) 25000 м  {туман}  ясно 
+20.6 +12.6 60 +25  1028.2  -1.2  771  286           
15 16.10.17 280 (З) 15000 м    ясно 
+20 +15.2 74 +28  1027.4  -0.8  770  286           
18 16.10.17 260 (З) 10 км    ясно 
+16.4 +15.3 93 +26  1027.2  -0.2  770  289    +23.6       
21 16.10.17 140 (ЮВ) 0400 м  туман на расстоянии  9/9 30 м 
[St]
+11 +11 100 +13  1027.4  0.2  770  296           
00 17.10.17 130 (ЮВ) 4000 м  местами туман поземный  3/3 30 м 
[St]
+9.8 +9.8 100 +11  1027.2  -0.2  770  298           
03 17.10.17 150 (ЮВ) 0700 м  туман на расстоянии  8/8 30 м 
[St]
+8.4 +8.3 99 +9  1026.4  -0.8  769  299           
06 17.10.17 140 (ЮВ) 0400 м  туман на расстоянии  8/8 30 м 
[St]
+7.6 +7.5 99 +9  1025.7  -0.7  769  300          влажная 
09 17.10.17 110 (В) 25000 м    6/0 верхняя 
[Ci]
+13 +12.4 96 +17  1026.3  0.6  769  293           
12 17.10.17 нст () 30000 м    6/0 верхняя 
[Ci]
+19.6 +10.9 57 +23  1024.7  -1.6  768  287           
15 17.10.17 270 (З) 30000 м    3/0 верхняя 
[Ci fib]
+20.2 +11.7 58 +23  1023.3  -1.4  767  286           
18 17.10.17 350 (С) 15000 м    1/0 верхняя 
[Ci fib]
+16 +13.5 85 +23  1023  -0.3  767  289    +23.6       
21 17.10.17 150 (ЮВ) 0400 м  туман местами  5/5 30 м 
[St]
+11 +10.7 98 +13  1023.1  0.1  767  295           
00 18.10.17 110 (В) 1500 м  туман местами  3/3 30 м 
[St]
+9 +8.7 98 +9  1022.8  -0.3  767  297           
03 18.10.17 110 (В) 6000 м  {туман}  ясно 
+8.4 +8.1 98 +8  1021.8  -1  766  298           
06 18.10.17 120 (ЮВ) 8000 м  дымка{туман}  3/3 450 м 
[Cu hum]
+7.2 +6.8 97 +7  1021.6  -0.1  766  299          влажная 
09 18.10.17 120 (ЮВ) 20000 м    ясно 
+13.6 +10.2 80 +15  1021.3  -0.3  765  292           
12 18.10.17 120 (ЮВ) 20000 м    3/3 600 м 
[Cu hum]
+19.4 +10.4 56 +21  1019.9  -1.4  764  286           
15 18.10.17 230 (ЮЗ) 20000 м    ясно 
+19.2 +14.5 74 +27  1018.7  -1.2  764  284           
18 18.10.17 030 (СВ) 10 км    ясно 
+16.4 +14.9 91 +25  1018.7  764  287    +20.5       
Время (UTC), дата Ветер
(°,м/с) 
Видим.   Явления Облачность Т
(°С)
Тd
(°С)
f(%) Тe
(°С)
Pmin
(гПа)
dP
(гПа)
Po
(мм)
O2
(г/м3)
Тmin Tmax R s Состояние
почвы

Для получения пояснительной информации подведите курсор к названию столбца.

ПОГОДА Pisa - архив

Всё, что Вы хотите узнать о погоде Pisa - удобно и подробно!

Выберите нужную дату (начиная с 1 января 2015* года) и нажмите кнопку "Найти".
Будут отображены архивные сводки погоды по пункту Pisa, начиная с указанной даты.


Отображать данные в формате CSV (для использования в таблицах Excel)


Внимание! Наш архив погоды предназначен исключительно для личного некоммерческого использования в познавательных целях. Если Вам необходимы официальные справки о состоянии погоды (для производственных, юридических, коммерческих и т.п. целей), обращайтесь в органы Росгидромета.

*Примечание: данная дата относится к архиву по метеостанциям СССР (Россия, СНГ, Балтия).
Архив по метеостанциям Зарубежной Европы и Азии (кроме Китая) хранится 10 дней, по другим регионам земного шара (Китай, Африка, Америка, Австралия, Океания) - 1 день.

Pisa - район местоположения метеостанции


Название, широта, долгота, высота метеостанции:
Pisa (S. Giusto) 43.7°ш. 10.4°д. 6 м над ур. моря [Italy]

Дополнительная информация

В oтличие oт бoльшинства пoгoдных сайтoв мы публикуем пoдрoбную метеoинфoрмацию в детальнoм прoфессиoнальнoм фoрмате.

Характеристики температуры и влажнoсти вoздуха измеряются на высoте 2 м в тени вдали oт зданий и деревьев.
Скoрoсть ветра измеряется на высoте 10 м (на урoвне рoста челoвека скoрoсть ветра ниже в 1.5-2 раза). Если метеoстанция нахoдится в гoрoде или в лесу, тo скoрoсть ветра занижена на 2-4 м/с пo сравнению с oткрытым местoм. Скoрoсть ветра над акватoриями крупных рек и oзёр, а также на вершинах хoлмoв на 2-5 м/с выше, чем в oбычных услoвиях.
Атмoсфернoе давление в разных тoчках местнoсти мoжет значительнo oтличаться oт давления на метеoстанции, в зависимoсти oт услoвий рельефа (при пoдъёме на 10 м давление пoнижается примернo на 1 мм рт.ст.).